| time (UTC) | temp F | wind direction | speed MPH | gust MPH | rain 1hr in | rain 24hr in | rain mn in | humidity % | barometer mb |
| 20260506043030 | 63 | 336 | 5.0 | 13.0 | 0.00 | 0.00 | 0.00 | 71 | 1008.8 |
| 20260506041529 | 64 | 340 | 3.0 | 10.0 | 0.00 | 0.00 | 0.00 | 72 | 1008.9 |
| 20260506040032 | 65 | 31 | 4.0 | 10.0 | 0.00 | 0.00 | 0.00 | 71 | 1009.0 |
| 20260506034522 | 66 | 345 | 2.0 | 11.0 | 0.00 | 0.00 | 0.00 | 70 | 1008.7 |
| 20260506033018 | 66 | 15 | 2.0 | 9.0 | 0.00 | 0.00 | 0.00 | 69 | 1008.3 |
| 20260506031517 | 66 | 327 | 5.0 | 13.0 | 0.00 | 0.00 | 0.00 | 68 | 1008.0 |
| 20260506030014 | 67 | 5 | 3.0 | 11.0 | 0.00 | 0.00 | 0.00 | 68 | 1007.5 |
| 20260506024511 | 67 | 305 | 3.0 | 12.0 | 0.00 | 0.00 | 0.00 | 68 | 1007.4 |
| 20260506023009 | 68 | 299 | 4.0 | 10.0 | 0.00 | 0.00 | 0.00 | 67 | 1007.2 |
| 20260506021505 | 68 | 300 | 4.0 | 8.0 | 0.00 | 0.00 | 0.00 | 65 | 1006.7 |
| 20260506020004 | 69 | 329 | 1.0 | 14.0 | 0.00 | 0.00 | 0.00 | 65 | 1006.6 |
| 20260506014601 | 70 | 336 | 2.0 | 9.0 | 0.00 | 0.00 | 0.00 | 66 | 1006.3 |
| 20260506013109 | 70 | 21 | 3.0 | 9.0 | 0.00 | 0.00 | 0.00 | 64 | 1005.6 |
| 20260506011615 | 71 | 360 | 3.0 | 13.0 | 0.00 | 0.00 | 0.00 | 64 | 1005.4 |
| 20260506010059 | 72 | 326 | 4.0 | 11.0 | 0.00 | 0.00 | 0.00 | 63 | 1005.1 |
| 20260506004554 | 73 | 5 | 1.0 | 8.0 | 0.00 | 0.00 | 0.00 | 63 | 1004.7 |
| 20260506003055 | 73 | 31 | 2.0 | 6.0 | 0.00 | 0.00 | 0.00 | 62 | 1004.6 |
| 20260506001555 | 74 | 25 | 2.0 | 11.0 | 0.00 | 0.00 | 0.00 | 60 | 1004.4 |
| 20260506000053 | 74 | 26 | 2.0 | 8.0 | 0.00 | 0.00 | 0.00 | 61 | 1004.2 |
| 20260505234553 | 75 | 325 | 3.0 | 12.0 | 0.00 | 0.00 | 0.00 | 60 | 1004.0 |
| 20260505233050 | 76 | 9 | 3.0 | 9.0 | 0.00 | 0.00 | 0.00 | 58 | 1004.0 |
| 20260505231605 | 78 | 5 | 5.0 | 13.0 | 0.00 | 0.00 | 0.00 | 57 | 1003.9 |
| 20260505230049 | 79 | 16 | 3.0 | 10.0 | 0.00 | 0.00 | 0.00 | 56 | 1003.6 |
| 20260505224548 | 80 | 304 | 4.0 | 12.0 | 0.00 | 0.00 | 0.00 | 57 | 1003.6 |
| 20260505223047 | 82 | 86 | 2.0 | 15.0 | 0.00 | 0.00 | 0.00 | 56 | 1003.2 |
| 20260505221547 | 84 | 360 | 3.0 | 11.0 | 0.00 | 0.00 | 0.00 | 47 | 1003.1 |
| 20260505220051 | 86 | 5 | 2.0 | 8.0 | 0.00 | 0.00 | 0.00 | 47 | 1002.9 |
| 20260505214555 | 86 | 344 | 3.0 | 9.0 | 0.00 | 0.00 | 0.00 | 44 | 1002.8 |
| 20260505213044 | 88 | 28 | 3.0 | 11.0 | 0.00 | 0.00 | 0.00 | 44 | 1003.0 |
| 20260505211544 | 90 | 277 | 1.0 | 8.0 | 0.00 | 0.00 | 0.00 | 46 | 1002.9 |
| 20260505210045 | 90 | 253 | 2.0 | 9.0 | 0.00 | 0.00 | 0.00 | 42 | 1003.0 |
| 20260505204542 | 90 | 238 | 3.0 | 8.0 | 0.00 | 0.00 | 0.00 | 43 | 1003.1 |
| 20260505203058 | 90 | 281 | 2.0 | 8.0 | 0.00 | 0.00 | 0.00 | 49 | 1003.3 |
| 20260505201544 | 89 | 242 | 6.0 | 12.0 | 0.00 | 0.00 | 0.00 | 44 | 1003.3 |
| 20260505200046 | 89 | 234 | 5.0 | 11.0 | 0.00 | 0.00 | 0.00 | 45 | 1003.5 |
| 20260505194537 | 89 | 250 | 3.0 | 12.0 | 0.00 | 0.00 | 0.00 | 47 | 1003.7 |
| 20260505193036 | 88 | 221 | 6.0 | 11.0 | 0.00 | 0.00 | 0.00 | 46 | 1003.6 |
| 20260505191533 | 88 | 200 | 7.0 | 14.0 | 0.00 | 0.00 | 0.00 | 48 | 1003.7 |
| 20260505190034 | 87 | 240 | 8.0 | 12.0 | 0.00 | 0.00 | 0.00 | 48 | 1003.6 |
| 20260505184530 | 86 | 246 | 8.0 | 12.0 | 0.00 | 0.00 | 0.00 | 53 | 1003.5 |
| 20260505183026 | 85 | 166 | 7.0 | 12.0 | 0.00 | 0.00 | 0.00 | 55 | 1003.7 |
| 20260505181521 | 84 | 237 | 6.0 | 12.0 | 0.00 | 0.00 | 0.00 | 59 | 1003.8 |
| 20260505180021 | 83 | 225 | 7.0 | 13.0 | 0.00 | 0.00 | 0.00 | 60 | 1003.9 |
| 20260505174527 | 83 | 294 | 7.0 | 13.0 | 0.00 | 0.00 | 0.00 | 62 | 1004.0 |
| 20260505173015 | 82 | 246 | 6.0 | 14.0 | 0.00 | 0.00 | 0.00 | 63 | 1004.0 |
| 20260505171515 | 83 | 223 | 6.0 | 15.0 | 0.00 | 0.00 | 0.00 | 62 | 1004.0 |
| 20260505170017 | 82 | 208 | 5.0 | 12.0 | 0.00 | 0.00 | 0.00 | 64 | 1004.1 |
| 20260505164511 | 81 | 243 | 5.0 | 15.0 | 0.00 | 0.00 | 0.00 | 64 | 1004.1 |
| 20260505163013 | 81 | 254 | 7.0 | 16.0 | 0.00 | 0.00 | 0.00 | 63 | 1004.1 |
| 20260505161504 | 80 | 249 | 6.0 | 16.0 | 0.00 | 0.00 | 0.00 | 65 | 1004.0 |
| 20260505153103 | 77 | 120 | 5.0 | 16.0 | 0.00 | 0.00 | 0.00 | 71 | 1003.8 |
| 20260505151603 | 76 | 261 | 6.0 | 12.0 | 0.00 | 0.00 | 0.00 | 73 | 1003.6 |
| 20260505124532 | 70 | 136 | 3.0 | 10.0 | 0.00 | 0.00 | 0.00 | 81 | 1003.5 |
| 20260505123028 | 70 | 211 | 2.0 | 9.0 | 0.00 | 0.00 | 0.00 | 82 | 1003.3 |
| 20260505121526 | 69 | 202 | 2.0 | 7.0 | 0.00 | 0.00 | 0.00 | 82 | 1003.1 |
| 20260505120022 | 69 | 234 | 4.0 | 11.0 | 0.00 | 0.00 | 0.00 | 83 | 1003.0 |
| 20260505114520 | 69 | 211 | 1.0 | 6.0 | 0.00 | 0.00 | 0.00 | 83 | 1002.8 |
| 20260505113021 | 69 | 155 | 2.0 | 8.0 | 0.00 | 0.00 | 0.00 | 82 | 1002.8 |
| 20260505111518 | 69 | 122 | 2.0 | 7.0 | 0.00 | 0.00 | 0.00 | 82 | 1002.7 |
| 20260505101517 | 69 | 159 | 3.0 | 9.0 | 0.00 | 0.00 | 0.00 | 81 | 1002.6 |
| 20260505100014 | 69 | 139 | 1.0 | 5.0 | 0.00 | 0.00 | 0.00 | 81 | 1002.7 |
| 20260505094510 | 69 | 116 | 2.0 | 9.0 | 0.00 | 0.00 | 0.00 | 80 | 1002.8 |
| 20260505093015 | 70 | 172 | 2.0 | 6.0 | 0.00 | 0.00 | 0.00 | 80 | 1002.8 |
| 20260505091505 | 70 | 229 | 1.0 | 9.0 | 0.00 | 0.00 | 0.00 | 79 | 1003.0 |
| 20260505090003 | 70 | 221 | 2.0 | 8.0 | 0.00 | 0.00 | 0.00 | 78 | 1003.2 |
| 20260505084501 | 71 | 148 | 1.0 | 7.0 | 0.00 | 0.00 | 0.00 | 77 | 1003.3 |
| 20260505083104 | 71 | 226 | 3.0 | 10.0 | 0.00 | 0.00 | 0.00 | 77 | 1003.3 |
| 20260505081602 | 71 | 173 | 3.0 | 10.0 | 0.00 | 0.00 | 0.00 | 76 | 1003.4 |
| 20260505080057 | 71 | 184 | 3.0 | 9.0 | 0.00 | 0.00 | 0.00 | 75 | 1003.3 |
| 20260505074555 | 71 | 158 | 4.0 | 9.0 | 0.00 | 0.00 | 0.00 | 74 | 1003.3 |
| 20260505073056 | 71 | 129 | 3.0 | 8.0 | 0.00 | 0.00 | 0.00 | 74 | 1003.7 |
| 20260505071553 | 71 | 122 | 1.0 | 9.0 | 0.00 | 0.00 | 0.00 | 73 | 1004.0 |
| 20260505070048 | 72 | 132 | 1.0 | 9.0 | 0.00 | 0.00 | 0.00 | 73 | 1004.3 |
| 20260505064545 | 72 | 127 | 1.0 | 6.0 | 0.00 | 0.00 | 0.00 | 72 | 1004.5 |
| 20260505063044 | 72 | 129 | 1.0 | 3.0 | 0.00 | 0.00 | 0.00 | 72 | 1004.7 |
| 20260505061546 | 72 | 130 | 2.0 | 6.0 | 0.00 | 0.00 | 0.00 | 71 | 1004.7 |
| 20260505060040 | 73 | 150 | 2.0 | 10.0 | 0.00 | 0.00 | 0.00 | 70 | 1004.7 |
| 20260505054541 | 73 | 207 | 2.0 | 8.0 | 0.00 | 0.00 | 0.00 | 70 | 1004.7 |
| 20260505053043 | 74 | 148 | 4.0 | 12.0 | 0.00 | 0.00 | 0.00 | 69 | 1004.6 |
| 20260505051535 | 74 | 269 | 4.0 | 11.0 | 0.00 | 0.00 | 0.00 | 68 | 1004.5 |